Weather History for Puyallup, WA

Change the Weather History Date:

Thursday, October 31, 2013

  Actual Average (KTCM) Record (KTCM)
Temperature  
Mean Temperature 50 °F -  
Max Temperature 53 °F 53 °F 68 °F (1970)
Min Temperature 46 °F 34 °F 17 °F (2002)
Degree Days  
Heating Degree Days 16    
Moisture  
Dew Point 50 °F    
Average Humidity 98    
Maximum Humidity 100    
Minimum Humidity 76    
Precipitation  
Precipitation 0.09 in - - ()
Sea Level Pressure  
Sea Level Pressure 30.18 in    
Wind  
Wind Speed 0 mph (West)    
Max Wind Speed 4 mph    
Max Gust Speed -    
Visibility 5 miles    
Events Fog , Rain    
Averages and records for this station are not official NWS values.
T = Trace of Precipitation, MM = Missing Value Source: NWS Daily Summary

Daily Weather History Graph

Daily Weather History Graph

Search for Another Location

Airport:

Trip Planner

Search our weather history database for the weather conditions in past years. The results will help you decide how hot, cold, wet, or windy it might be!

Date:

Astronomy

Oct. 31, 2013 Rise Set
Actual Time 7:51 AM PDT 5:53 PM PDT
Civil Twilight 7:19 AM PDT 6:25 PM PDT
Nautical Twilight 6:43 AM PDT 7:01 PM PDT
Astronomical Twilight 6:07 AM PDT 7:36 PM PDT
Moon 4:35 AM PDT (10/31) 4:23 PM PDT (10/31)
Length of Visible Light 11h 06m
Length of Day
10h 02m
Waning Crescent, 9% of the Moon is Illuminated
Oct 31
Waning Crescent
Nov 3
New
Nov 9
First Quarter
Nov 17
Full
Nov 25
Last Quarter

Hourly Weather History & Observations

Time (PDT) Temp. Dew Point Humidity Pressure Visibility Wind Dir Wind Speed Gust Speed Precip Events Conditions
12:15 AM 48.2 °F 42.8 °F 82% 30.13 in 10.0 mi West 3.5 mph - N/A   Unknown
12:35 AM 48.2 °F 42.8 °F 82% 30.13 in 10.0 mi Calm Calm - N/A   Unknown
12:55 AM 48.2 °F 42.8 °F 82% 30.13 in 10.0 mi Calm Calm - N/A   Unknown
1:15 AM 48.2 °F 42.8 °F 82% 30.12 in 10.0 mi Calm Calm - N/A   Unknown
1:35 AM 48.2 °F 42.8 °F 82% 30.12 in 10.0 mi Calm Calm - N/A   Unknown
1:55 AM 50.0 °F 42.8 °F 76% 30.12 in 10.0 mi Calm Calm - N/A   Unknown
2:15 AM 50.0 °F 42.8 °F 76% 30.12 in 10.0 mi Calm Calm - N/A   Unknown
2:35 AM 50.0 °F 44.6 °F 82% 30.13 in 6.0 mi Calm Calm - N/A Rain Light Rain
2:55 AM 48.2 °F 46.4 °F 93% 30.14 in 5.0 mi Calm Calm - N/A Rain Light Rain
3:15 AM 46.4 °F 46.4 °F 100% 30.13 in 2.5 mi Calm Calm - 0.01 in Rain Light Rain
3:35 AM 46.4 °F 46.4 °F 100% 30.13 in 3.0 mi Calm Calm - 0.02 in Rain Light Rain
3:55 AM 46.4 °F 46.4 °F 100% 30.12 in 2.5 mi Calm Calm - 0.04 in Rain Light Rain
4:15 AM 46.4 °F 46.4 °F 100% 30.12 in 4.0 mi Calm Calm - N/A Rain Light Rain
4:35 AM 46.4 °F 46.4 °F 100% 30.12 in 10.0 mi Calm Calm - 0.01 in   Unknown
4:55 AM 48.2 °F 48.2 °F 100% 30.11 in 9.0 mi Calm Calm - 0.01 in   Unknown
5:15 AM 48.2 °F 48.2 °F 100% 30.11 in 5.0 mi Calm Calm - N/A Rain Light Rain
5:35 AM 48.2 °F 48.2 °F 100% 30.12 in 5.0 mi Calm Calm - N/A Rain Light Rain
5:55 AM 48.2 °F 48.2 °F 100% 30.12 in 5.0 mi Calm Calm - N/A   Mist
6:15 AM 48.2 °F 48.2 °F 100% 30.12 in 3.0 mi Calm Calm - N/A Rain Light Rain
6:35 AM 48.2 °F 48.2 °F 100% 30.11 in 4.0 mi Calm Calm - N/A Rain Light Rain
6:55 AM 48.2 °F 48.2 °F 100% 30.12 in 3.0 mi Calm Calm - N/A Rain Light Rain
7:15 AM 48.2 °F 48.2 °F 100% 30.12 in 8.0 mi Calm Calm - N/A   Unknown
7:35 AM 48.2 °F 48.2 °F 100% 30.12 in 2.5 mi Calm Calm - N/A Rain Light Rain
7:55 AM 48.2 °F 48.2 °F 100% 30.13 in 10.0 mi Calm Calm - 0.01 in   Unknown
8:15 AM 48.2 °F 48.2 °F 100% 30.12 in 10.0 mi Calm Calm - N/A   Unknown
8:35 AM 48.2 °F 48.2 °F 100% 30.14 in 10.0 mi Calm Calm - N/A   Unknown
8:55 AM 48.2 °F 48.2 °F 100% 30.14 in 10.0 mi Calm Calm - N/A   Unknown
9:15 AM 50.0 °F 50.0 °F 100% 30.15 in 10.0 mi Calm Calm - N/A   Unknown
9:35 AM 50.0 °F 50.0 °F 100% 30.16 in 10.0 mi Calm Calm - N/A   Unknown
9:55 AM 50.0 °F 50.0 °F 100% 30.16 in 3.0 mi Calm Calm - N/A   Mist
10:15 AM 50.0 °F 50.0 °F 100% 30.17 in 5.0 mi Calm Calm - N/A   Mist
10:35 AM 50.0 °F 50.0 °F 100% 30.17 in 5.0 mi Calm Calm - N/A   Mist
10:55 AM 50.0 °F 50.0 °F 100% 30.18 in 2.0 mi Calm Calm - N/A   Mist
11:15 AM 48.2 °F 48.2 °F 100% 30.18 in 3.0 mi Calm Calm - N/A   Mist
11:35 AM 50.0 °F 50.0 °F 100% 30.19 in 9.0 mi Calm Calm - N/A   Unknown
11:55 AM 50.0 °F 50.0 °F 100% 30.19 in 2.0 mi Calm Calm - N/A   Mist
12:15 PM 50.0 °F 50.0 °F 100% 30.20 in 1.5 mi Calm Calm - N/A Rain Light Rain
12:35 PM 50.0 °F 50.0 °F 100% 30.20 in 1.5 mi Calm Calm - 0.01 in Rain Light Rain
12:55 PM 51.8 °F 51.8 °F 100% 30.20 in 1.2 mi Calm Calm - 0.01 in Rain Light Rain
1:15 PM 51.8 °F 51.8 °F 100% 30.20 in 2.0 mi Calm Calm - N/A   Mist
1:35 PM 53.6 °F 53.6 °F 100% 30.20 in 1.0 mi Calm Calm - 0.01 in Rain Light Rain
1:55 PM 53.6 °F 53.6 °F 100% 30.20 in 3.0 mi Calm Calm - 0.01 in   Mist
2:15 PM 53.6 °F 53.6 °F 100% 30.20 in 2.0 mi Calm Calm - N/A   Mist
2:35 PM 53.6 °F 53.6 °F 100% 30.20 in 2.0 mi Calm Calm - 0.01 in Rain Light Rain
2:55 PM 53.6 °F 53.6 °F 100% 30.21 in 3.0 mi Calm Calm - 0.01 in   Mist
3:15 PM 53.6 °F 53.6 °F 100% 30.21 in 5.0 mi Calm Calm - N/A   Mist
3:35 PM 53.6 °F 53.6 °F 100% 30.21 in 5.0 mi Calm Calm - N/A   Mist
3:55 PM 53.6 °F 53.6 °F 100% 30.21 in 5.0 mi Calm Calm - N/A   Mist
4:15 PM 53.6 °F 53.6 °F 100% 30.22 in 8.0 mi Calm Calm - N/A   Unknown
4:35 PM 53.6 °F 53.6 °F 100% 30.22 in 5.0 mi Calm Calm - N/A   Mist
4:55 PM 53.6 °F 53.6 °F 100% 30.22 in 10.0 mi Calm Calm - N/A   Unknown
5:15 PM 53.6 °F 53.6 °F 100% 30.22 in 10.0 mi Calm Calm - N/A   Unknown
5:35 PM 53.6 °F 53.6 °F 100% 30.22 in 8.0 mi Calm Calm - N/A   Unknown
5:55 PM 53.6 °F 53.6 °F 100% 30.22 in 9.0 mi Calm Calm - N/A   Unknown
6:15 PM 53.6 °F 53.6 °F 100% 30.22 in 4.0 mi Calm Calm - N/A   Mist
6:35 PM 53.6 °F 53.6 °F 100% 30.22 in 5.0 mi Calm Calm - N/A   Mist
6:55 PM 53.6 °F 53.6 °F 100% 30.22 in 4.0 mi Calm Calm - N/A   Mist
7:15 PM 51.8 °F 51.8 °F 100% 30.23 in 2.5 mi Calm Calm - N/A   Mist
7:35 PM 51.8 °F 51.8 °F 100% 30.24 in 2.5 mi Calm Calm - N/A   Mist
7:55 PM 51.8 °F 51.8 °F 100% 30.24 in 5.0 mi Calm Calm - N/A   Mist
8:15 PM 51.8 °F 51.8 °F 100% 30.25 in 7.0 mi Calm Calm - N/A   Unknown
8:35 PM 51.8 °F 51.8 °F 100% 30.25 in 5.0 mi Calm Calm - N/A   Mist
8:55 PM 51.8 °F 51.8 °F 100% 30.25 in 4.0 mi Calm Calm - N/A   Mist
9:15 PM 51.8 °F 51.8 °F 100% 30.25 in 9.0 mi Calm Calm - N/A   Unknown
9:35 PM 50.0 °F 50.0 °F 100% 30.26 in 3.0 mi Calm Calm - N/A   Mist
9:55 PM 50.0 °F 50.0 °F 100% 30.26 in 3.0 mi Calm Calm - N/A   Mist
10:15 PM 50.0 °F 50.0 °F 100% 30.27 in 1.2 mi Calm Calm - N/A   Mist
10:35 PM 50.0 °F 50.0 °F 100% 30.27 in 5.0 mi Calm Calm - N/A   Mist
10:55 PM 50.0 °F 50.0 °F 100% 30.27 in 1.0 mi Calm Calm - N/A   Mist
11:15 PM 48.2 °F 48.2 °F 100% 30.27 in 0.5 mi Calm Calm - N/A Fog Fog
11:35 PM 50.0 °F 50.0 °F 100% 30.27 in 1.2 mi Calm Calm - N/A   Mist
11:55 PM 50.0 °F 50.0 °F 100% 30.27 in 2.5 mi Calm Calm - N/A   Mist